COSMOS 2251 DEB, 34449

Orbit data source: Space-Track

COSMOS 2251 DEB, 34449 is space debris in LEO originally from a launch on Wed, 16 Jun 1993 UTC launched from the Plesetsk Missile And Space Complex (PKMTR). The debris from Iridium 33, an American commercial communications satellite, has been tracked extensively since its accidental collision with the defunct Russian satellite Cosmos 2251 in 2009. This event, occurring at high speed in low Earth orbit (LEO), generated thousands of pieces of space debris, significantly increasing the risk of further collisions. The Iridium 33 debris cloud has impacted space traffic management and orbital debris mitigation strategies, making it a subject of ongoing study in space situational awareness.

Loading next visibility...
Identifier
34449, 1993-036SS
Orbit
LEO
Country
Flag of CISCIS
Related business
Manufacturer
Unknown
Mission
Spacecraft
Bus & Motor
Unknown
Mass
Unknown
Launch date (UTC)
1993-06-16 (33 years ago)
Launch vehicle
Unknown
Launch site
Plesetsk Missile And Space Complex (PKMTR)
Object type
Payload
Rocket body
Debris
Shape & HBR
Unknown shape, 0.1 m
Radar Cross Section
Small (<0.1 m²)

Expand to show TLE details & history
Last TLE update: 1 day ago

TLE from 1 day ago
0 COSMOS 2251 DEB
1 34449U 93036SS  26032.87643949  .00042167  00000-0  34317-2 0  9998
2 34449  74.0330 327.1342 0021593 355.2796  72.5795 14.99148303894583
Epoch: 2026-02-01T21:02Z
TLE epoch observation values (Epoch: 2026-02-01T21:02:04.371Z)
Latitude
63.2316°
Longitude
-86.12363°
Altitude
575.583 km
Speed
7.582 km/s
True Right ascension
00h 05m 53s
True Declination
63° 05' 22"
Sunlit
Object was in daylight at epoch
Visualization orbit readout
Latitude
Unknown
Longitude
Unknown
Altitude
Unknown
Speed
Unknown
Apparent Right ascension
Unknown
Apparent Declination
Unknown
Sunlit
N/A
Visualization observer readout
Local Sidereal Time
04:15:57
Azimuth
Unknown
Elevation
Unknown
Doppler factor
Unknown
Orbital elements
Apogee altitude
582.078 km
Perigee altitude
552.085 km
Semi-major axis
6,945.218 km
Eccentricity
0.00216
Inclination
74.033°
RAAN
327.1342°
Arg. of periapsis
355.2796°
True anomaly
72.81578°
Mean anomaly
72.5795°
Eccentric anomaly
72.69762°
Mean motion
3.74985 °/min
Orbital period
96 mins
BSTAR
0.0034317
Loading maneuver chart data...
Computing Atmospheric mass density...

Documentation

Showing up to 5 results
|